Overview Statistics Trail Chart Weather Telemetry Raw packets
 

This is the latest recevied weather packets stored in our database for station/object IW1RCO-13. If no packets are shown the sender has not sent any weather packets the latest 10 day(s).

<< 37 38 39 40 41 42 43 >>
Time Temp. Humidity Pressure Rain* Wind** Luminosity Snow
1788376766 20.56° C 89% 1018.3 hPa - - - -
1788374372 21.11° C 88% 1017.3 hPa - - - -
1788374068 21.11° C 89% 1016.9 hPa - - - -
1788373772 21.67° C 89% 1016.9 hPa - - - -
1788373468 21.67° C 88% 1016.4 hPa - - - -
1788373171 21.67° C 88% 1017.3 hPa - - - -
1788372868 22.22° C 89% 1017.3 hPa - - - -
1788372571 22.22° C 90% 1018.2 hPa - - - -
1788372267 22.22° C 90% 1017.1 hPa - - - -
1788371971 22.22° C 90% 1017.7 hPa - - - -
1788371667 22.78° C 90% 1017.5 hPa - - - -
1788371370 22.78° C 90% 1017.3 hPa - - - -
1788371067 22.78° C 89% 1016.6 hPa - - - -
1788370770 22.78° C 90% 1017.5 hPa - - - -
1788370467 22.78° C 89% 1017.1 hPa - - - -
1788370170 22.78° C 89% 1016.9 hPa - - - -
1788369866 22.78° C 88% 1016.7 hPa - - - -
1788369570 23.33° C 87% 1016.8 hPa - - - -
1788369266 22.78° C 88% 1017.7 hPa - - - -
1788368969 23.33° C 86% 1016.8 hPa - - - -
1788368666 23.33° C 86% 1016.6 hPa - - - -
1788367769 23.89° C 85% 1017 hPa - - - -
1788367472 23.89° C 85% 1016.4 hPa - - - -
1788367169 23.33° C 87% 1017.5 hPa - - - -
1788366872 22.78° C 87% 1016.9 hPa - - - -

* Rain since midnight (hover to see other rain measurements)
** Current wind speed in m/s (hover to see current wind gust speed)